Location: Augustenthal
(51.7167°N, 10.2833°E)
Time: 23:13:51
(UTC+00:00)

Iridium 4 Rocket - Pass Details

Date: 18 May 2021
Orbit: 583 x 906 km, 86.9° (Epoch: 24 June)

Event Time Altitude Azimuth Distance (km) Brightness Sun altitude
Rises 19:45:21 0° 166° (SSE) 3,501 6.4 -5.2°
Reaches altitude 10° 19:47:49 10° 163° (SSE) 2,578 5.7 -5.4°
Maximum altitude 19:53:33 56° 87° (E) 1,069 4.1 -6.1°
Drops below altitude 10° 19:59:16 10° 11° (N) 2,562 6.7 -6.7°
Sets 20:01:43 0° 7° (N) 3,478 7.5 -7.0°
